GLOBALSTAR M092 [+]

Last updated on Thu Dec 28 2023 00:02:58 GMT+0000 (Coordinated Universal Time)

1 38043U 11080D 23361.23328012 -.00000079 00000+0 13876-3 0 9998 2 38043 52.0100 293.3587 0000737 25.6034 122.1895 12.62248013554014

Satellite not in orbit

GLOBALSTAR M092 [+]